Location: Newark
(7.0858°N, 171.3717°E)
Time: 05:05:10
(UTC+00:00)

Courier 1B Rocket - Pass Details

Date: 04 December 2020
Orbit: 920 x 1202 km, 28.2° (Epoch: 20 January)

Event Time Altitude Azimuth Distance (km) Brightness Sun altitude
Rises 16:45:31 0° 297° (WNW) 3,999 - -25.7°
Reaches altitude 10° 16:49:46 10° 319° (NW) 3,080 - -24.7°
Exits shadow 16:53:49 15° 351° (N) 2,715 7.0 -23.7°
Maximum altitude 16:54:00 15° 353° (N) 2,715 7.0 -23.7°
Drops below altitude 10° 16:58:18 10° 26° (NNE) 3,123 7.7 -22.7°
Sets 17:02:40 0° 48° (NE) 4,087 8.6 -21.7°
